| time (UTC) | temp F | wind direction | speed MPH | gust MPH | rain 1hr in | rain 24hr in | rain mn in | humidity % | barometer mb |
| 20260504234520 | 69 | 304 | 6.0 | 14.0 | 0.00 | 0.00 | 0.00 | 56 | 1002.7 |
| 20260504233021 | 70 | 239 | 6.0 | 13.0 | 0.00 | 0.00 | 0.00 | 50 | 1001.7 |
| 20260504231525 | 71 | 257 | 6.0 | 13.0 | 0.00 | 0.00 | 0.00 | 47 | 1002.0 |
| 20260504230016 | 71 | 263 | 5.0 | 10.0 | 0.00 | 0.00 | 0.00 | 46 | 1002.2 |
| 20260504224514 | 71 | 292 | 5.0 | 15.0 | 0.00 | 0.00 | 0.00 | 44 | 1002.6 |
| 20260504223011 | 72 | 296 | 9.0 | 16.0 | 0.00 | 0.00 | 0.00 | 42 | 1002.5 |
| 20260504221510 | 73 | 315 | 9.0 | 17.0 | 0.00 | 0.00 | 0.00 | 41 | 1002.5 |
| 20260504220017 | 74 | 297 | 8.0 | 16.0 | 0.00 | 0.00 | 0.00 | 39 | 1002.6 |
| 20260504214509 | 74 | 290 | 7.0 | 21.0 | 0.00 | 0.00 | 0.00 | 39 | 1002.7 |
| 20260504213011 | 74 | 280 | 4.0 | 16.0 | 0.00 | 0.00 | 0.00 | 40 | 1002.4 |
| 20260504211512 | 74 | 250 | 8.0 | 19.0 | 0.00 | 0.00 | 0.00 | 41 | 1002.5 |
| 20260504210008 | 74 | 288 | 9.0 | 17.0 | 0.00 | 0.00 | 0.00 | 39 | 1002.6 |
| 20260504204508 | 74 | 317 | 7.0 | 18.0 | 0.00 | 0.00 | 0.00 | 36 | 1002.6 |
| 20260504203015 | 74 | 280 | 10.0 | 16.0 | 0.00 | 0.00 | 0.00 | 36 | 1002.8 |
| 20260504201504 | 74 | 293 | 8.0 | 15.0 | 0.00 | 0.00 | 0.00 | 33 | 1002.9 |
| 20260504200002 | 74 | 328 | 7.0 | 16.0 | 0.00 | 0.00 | 0.00 | 34 | 1002.9 |
| 20260504194610 | 74 | 262 | 5.0 | 14.0 | 0.00 | 0.00 | 0.00 | 36 | 1003.3 |
| 20260504193058 | 74 | 258 | 8.0 | 16.0 | 0.00 | 0.00 | 0.00 | 38 | 1003.4 |
| 20260504191556 | 74 | 289 | 5.0 | 19.0 | 0.00 | 0.00 | 0.00 | 38 | 1003.6 |
| 20260504190120 | 73 | 267 | 7.0 | 20.0 | 0.00 | 0.00 | 0.00 | 38 | 1003.9 |
| 20260504184557 | 73 | 310 | 6.0 | 17.0 | 0.00 | 0.00 | 0.00 | 40 | 1004.0 |
| 20260504183049 | 73 | 300 | 8.0 | 19.0 | 0.00 | 0.00 | 0.00 | 40 | 1004.3 |
| 20260504181550 | 72 | 340 | 7.0 | 17.0 | 0.00 | 0.00 | 0.00 | 40 | 1004.2 |
| 20260504180115 | 71 | 306 | 6.0 | 17.0 | 0.00 | 0.00 | 0.00 | 44 | 1004.4 |
| 20260504174542 | 71 | 295 | 6.0 | 15.0 | 0.00 | 0.00 | 0.00 | 43 | 1004.6 |
| 20260504173048 | 71 | 294 | 7.0 | 20.0 | 0.00 | 0.00 | 0.00 | 44 | 1004.9 |
| 20260504171536 | 70 | 250 | 8.0 | 17.0 | 0.00 | 0.00 | 0.00 | 44 | 1005.1 |
| 20260504081519 | 51 | 319 | 3.0 | 15.0 | 0.00 | 0.00 | 0.00 | 58 | 1008.3 |
| 20260504050125 | 48 | 236 | 2.0 | 5.0 | 0.00 | 0.00 | 0.00 | 59 | 1010.5 |
| 20260504044552 | 49 | 257 | 1.0 | 4.0 | 0.00 | 0.00 | 0.00 | 59 | 1010.5 |
| 20260504043057 | 49 | 279 | 3.0 | 7.0 | 0.00 | 0.00 | 0.00 | 58 | 1010.5 |
| 20260504041548 | 49 | 273 | 1.0 | 9.0 | 0.00 | 0.00 | 0.00 | 57 | 1010.8 |
| 20260504040044 | 49 | 327 | 4.0 | 12.0 | 0.00 | 0.00 | 0.00 | 58 | 1011.0 |
| 20260504034547 | 50 | 284 | 1.0 | 6.0 | 0.00 | 0.00 | 0.00 | 57 | 1011.0 |
| 20260504033034 | 49 | 268 | 2.0 | 5.0 | 0.00 | 0.00 | 0.00 | 58 | 1010.9 |
| 20260504031530 | 50 | 245 | 2.0 | 7.0 | 0.00 | 0.00 | 0.00 | 58 | 1011.0 |
| 20260504030036 | 51 | 252 | 2.0 | 5.0 | 0.00 | 0.00 | 0.00 | 57 | 1011.1 |
| 20260504024520 | 51 | 253 | 3.0 | 6.0 | 0.00 | 0.00 | 0.00 | 55 | 1011.1 |
| 20260504023016 | 52 | 270 | 2.0 | 7.0 | 0.00 | 0.00 | 0.00 | 54 | 1011.2 |
| 20260504021512 | 53 | 260 | 2.0 | 5.0 | 0.00 | 0.00 | 0.00 | 53 | 1011.2 |
| 20260504020008 | 54 | 270 | 2.0 | 8.0 | 0.00 | 0.00 | 0.00 | 51 | 1011.2 |
| 20260504014505 | 54 | 254 | 2.0 | 7.0 | 0.00 | 0.00 | 0.00 | 50 | 1011.1 |
| 20260504013112 | 54 | 248 | 2.0 | 6.0 | 0.00 | 0.00 | 0.00 | 50 | 1011.0 |
| 20260504011557 | 55 | 275 | 2.0 | 5.0 | 0.00 | 0.00 | 0.00 | 49 | 1010.9 |
| 20260504010057 | 56 | 271 | 2.0 | 6.0 | 0.00 | 0.00 | 0.00 | 48 | 1010.9 |
| 20260504004546 | 56 | 294 | 2.0 | 8.0 | 0.00 | 0.00 | 0.00 | 46 | 1010.9 |
| 20260504003046 | 57 | 290 | 3.0 | 7.0 | 0.00 | 0.00 | 0.00 | 44 | 1010.8 |
| 20260504001547 | 57 | 321 | 6.0 | 15.0 | 0.00 | 0.00 | 0.00 | 43 | 1010.8 |
| 20260504000034 | 58 | 315 | 5.0 | 10.0 | 0.00 | 0.00 | 0.00 | 43 | 1010.8 |